Location: Newark
(44.6028°N, 124.0883°W)
Time: 08:13:47
(UTC+00:00)

Vanguard 1 Rocket - Pass Details

Date: 23 October 2019
Orbit: 651 x 4226 km, 34.3° (Epoch: 18 November)

Event Time Altitude Azimuth Distance (km) Brightness Sun altitude
Rises 16:19:51 0° 205° (SSW) 4,480 11.1 15.0°
Reaches altitude 10° 16:22:50 10° 193° (SSW) 3,890 11.0 15.4°
Maximum altitude 16:31:51 30° 137° (SE) 3,639 12.3 16.7°
Drops below altitude 10° 16:46:40 10° 86° (E) 6,486 12.6 18.8°
Sets 16:53:37 0° 79° (ENE) 7,986 12.8 19.8°
